Data for 01/23/2017

Time Sea-Level Adjusted Pressure Absolute Pressure Temperature Relative Humidity Dew Point   
(mb) (inHg) (mb) (inHg) (C) (F) (%) (C) (F)
00:05 1007 29.74 836 24.69 -2.2 28.1 65 -7.8 17.9
00:10 1007 29.74 836 24.69 -2.2 28 66 -7.8 18
00:15 1006 29.71 836 24.69 -2.3 27.9 67 -7.6 18.2
00:20 1006 29.71 835 24.66 -2.4 27.6 67 -7.7 18.2
00:25 1006 29.71 835 24.66 -2.5 27.4 68 -7.6 18.3
00:30 1006 29.71 835 24.66 -2.6 27.3 67 -7.9 17.7
00:35 1006 29.71 835 24.66 -2.5 27.5 66 -8 17.6
00:40 1006 29.71 835 24.66 -2.6 27.4 68 -7.7 18.2
00:45 1006 29.71 835 24.66 -2.8 27 67 -8.1 17.5
00:50 1006 29.71 835 24.66 -2.6 27.3 65 -8.2 17.2
00:55 1006 29.71 835 24.66 -2.3 27.8 64 -8.2 17.3
01:00 1006 29.71 835 24.66 -2.1 28.2 63 -8.3 17.1
01:05 1006 29.71 835 24.66 -1.9 28.5 63 -8.1 17.5
01:10 1006 29.71 835 24.66 -1.9 28.6 63 -8 17.7
01:15 1006 29.71 835 24.66 -1.9 28.6 63 -8 17.5
01:20 1006 29.71 835 24.66 -1.9 28.6 64 -7.8 18
01:25 1006 29.71 835 24.66 -2.3 27.9 68 -7.5 18.5
01:30 1006 29.71 835 24.66 -2.9 26.8 68 -7.9 17.8
01:35 1006 29.71 835 24.66 -3.3 26 69 -8.1 17.4
01:40 1006 29.71 835 24.66 -3.4 25.9 69 -8.3 17
01:45 1006 29.71 835 24.66 -3.2 26.2 68 -8.2 17.2
01:50 1006 29.71 835 24.66 -2.9 26.8 66 -8.3 17
01:55 1006 29.71 835 24.66 -3.6 25.4 70 -8.4 16.8
02:00 1006 29.71 835 24.66 -3.8 25.2 70 -8.4 16.8
02:05 1005 29.68 835 24.66 -3.8 25.2 70 -8.5 16.7
02:10 1005 29.68 835 24.66 -3.7 25.4 69 -8.6 16.6
02:15 1005 29.68 835 24.66 -3.6 25.4 70 -8.4 16.8
02:20 1005 29.68 835 24.66 -3.8 25.1 71 -8.4 16.9
02:25 1005 29.68 835 24.66 -3.9 25 70 -8.5 16.7
02:30 1005 29.68 834 24.63 -3.9 25 71 -8.4 16.8
02:35 1005 29.68 834 24.63 -4 24.8 71 -8.5 16.8
02:40 1005 29.68 834 24.63 -4.1 24.6 72 -8.5 16.8
02:45 1005 29.68 834 24.63 -4 24.8 71 -8.5 16.7
02:50 1005 29.68 834 24.63 -3.8 25.1 69 -8.7 16.4
02:55 1005 29.68 834 24.63 -3.7 25.4 69 -8.6 16.6
03:00 1005 29.68 834 24.63 -3.7 25.3 69 -8.6 16.6
03:05 1005 29.68 834 24.63 -3.8 25.2 70 -8.5 16.7
03:10 1005 29.68 834 24.63 -3.8 25.1 70 -8.6 16.6
03:15 1005 29.68 835 24.66 -3.9 24.9 70 -8.7 16.4
03:20 1005 29.68 835 24.66 -4.2 24.5 70 -8.9 16
03:25 1005 29.68 835 24.66 -4.3 24.3 71 -8.8 16.1
03:30 1005 29.68 835 24.66 -4.5 24 70 -9.1 15.6
03:35 1006 29.71 835 24.66 -4.7 23.6 71 -9.2 15.5
03:40 1006 29.71 835 24.66 -4.9 23.3 72 -9.2 15.5
03:45 1006 29.71 835 24.66 -5.1 22.9 73 -9.2 15.4
03:50 1006 29.71 835 24.66 -5.2 22.7 74 -9.2 15.5
03:55 1006 29.71 835 24.66 -5.3 22.5 74 -9.2 15.5
04:00 1006 29.71 835 24.66 -5.4 22.2 74 -9.3 15.3
04:05 1006 29.71 835 24.66 -5.5 22 75 -9.3 15.3
04:10 1006 29.71 835 24.66 -5.5 22.2 76 -9.1 15.6
04:15 1006 29.71 835 24.66 -5.3 22.5 77 -8.6 16.4
04:20 1006 29.71 835 24.66 -5 23.1 74 -8.9 15.9
04:25 1006 29.71 835 24.66 -4.9 23.2 75 -8.7 16.3
04:30 1006 29.71 835 24.66 -4.9 23.2 73 -8.9 15.9
04:35 1006 29.71 835 24.66 -5.1 22.9 73 -9.1 15.6
04:40 1006 29.71 835 24.66 -5.3 22.6 74 -9.3 15.3
04:45 1006 29.71 835 24.66 -5.6 22 75 -9.4 15.2
04:50 1006 29.71 835 24.66 -6 21.2 78 -9.3 15.2
04:55 1006 29.71 835 24.66 -6.1 21.1 79 -9.2 15.5
05:00 1006 29.71 835 24.66 -6 21.3 78 -9.2 15.5
05:05 1006 29.71 835 24.66 -6 21.1 78 -9.3 15.2
05:10 1006 29.71 835 24.66 -6.3 20.6 78 -9.7 14.6
05:15 1006 29.71 835 24.66 -6.6 20.1 79 -9.7 14.5
05:20 1006 29.71 835 24.66 -6.6 20.1 79 -9.7 14.6
05:25 1006 29.71 835 24.66 -6.4 20.5 77 -9.7 14.5
05:30 1006 29.71 835 24.66 -6.1 21 76 -9.7 14.5
05:35 1006 29.71 835 24.66 -6.1 21 74 -10.1 13.9
05:40 1006 29.71 835 24.66 -6.6 20.1 74 -10.5 13.1
05:45 1006 29.71 835 24.66 -7.1 19.3 77 -10.5 13.1
05:50 1005 29.68 835 24.66 -7 19.5 78 -10.1 13.7
05:55 1005 29.68 835 24.66 -6.7 19.9 80 -9.7 14.5
06:00 1005 29.68 835 24.66 -6.6 20 79 -9.8 14.4
06:05 1005 29.68 834 24.63 -6.8 19.8 82 -9.4 15.2
06:10 1005 29.68 835 24.66 -6.4 20.4 78 -9.6 14.7
06:15 1005 29.68 835 24.66 -6.1 21 77 -9.4 15
06:20 1005 29.68 835 24.66 -6.1 21 78 -9.3 15.3
06:25 1005 29.68 835 24.66 -6.1 21 76 -9.6 14.6
06:30 1006 29.71 835 24.66 -6.4 20.5 77 -9.8 14.4
06:35 1006 29.71 835 24.66 -6.7 19.9 77 -10.2 13.7
06:40 1006 29.71 835 24.66 -6.9 19.6 77 -10.2 13.6
06:45 1006 29.71 835 24.66 -6.9 19.6 79 -9.9 14.2
06:50 1006 29.71 835 24.66 -6.4 20.6 79 -9.5 14.9
06:55 1006 29.71 835 24.66 -6 21.3 76 -9.6 14.8
07:00 1006 29.71 835 24.66 -5.7 21.7 75 -9.4 15.1
07:05 1006 29.71 835 24.66 -5.5 22 71 -10.1 13.9
07:10 1006 29.71 835 24.66 -5.3 22.4 70 -10 13.9
07:15 1006 29.71 835 24.66 -5.4 22.4 68 -10.4 13.3
07:20 1006 29.71 835 24.66 -5.5 22.1 69 -10.4 13.3
07:25 1006 29.71 835 24.66 -5.6 22 70 -10.2 13.6
07:30 1006 29.71 835 24.66 -5.4 22.3 69 -10.3 13.5
07:35 1006 29.71 835 24.66 -5.6 21.9 71 -10.1 13.8
07:40 1006 29.71 835 24.66 -5.9 21.5 72 -10.1 13.9
07:45 1006 29.71 835 24.66 -6.2 20.8 71 -10.6 12.8
07:50 1006 29.71 835 24.66 -6.4 20.4 76 -10.1 13.9
07:55 1006 29.71 835 24.66 -6.9 19.5 77 -10.3 13.4
08:00 1006 29.71 835 24.66 -7.2 19 77 -10.6 12.9
08:05 1006 29.71 835 24.66 -7.4 18.7 77 -10.8 12.5
08:10 1006 29.71 835 24.66 -7.6 18.4 77 -10.9 12.3
08:15 1006 29.71 835 24.66 -7.5 18.5 77 -10.8 12.6
08:20 1006 29.71 835 24.66 -7.3 18.9 77 -10.7 12.8
08:25 1006 29.71 835 24.66 -7.2 19.1 77 -10.5 13.1
08:30 1006 29.71 835 24.66 -7.2 19 77 -10.6 12.9
08:35 1006 29.71 835 24.66 -7.3 18.8 78 -10.6 12.9
08:40 1006 29.71 835 24.66 -7.3 18.9 76 -10.7 12.7
08:45 1006 29.71 835 24.66 -7.4 18.6 76 -10.9 12.4
08:50 1006 29.71 835 24.66 -7.6 18.3 76 -11.1 12.1
08:55 1006 29.71 835 24.66 -7.9 17.8 77 -11.2 11.9
09:00 1006 29.71 836 24.69 -8 17.6 78 -11.2 11.8
09:05 1006 29.71 836 24.69 -8 17.6 78 -11.2 11.9
09:10 1006 29.71 836 24.69 -8.2 17.3 80 -11 12.2
09:15 1006 29.71 836 24.69 -8.3 17.1 81 -10.9 12.3
09:20 1007 29.74 836 24.69 -8.3 17.1 79 -11.3 11.6
09:25 1007 29.74 836 24.69 -8.6 16.6 77 -11.9 10.6
09:30 1007 29.74 836 24.69 -9 15.9 78 -12.1 10.3
09:35 1007 29.74 836 24.69 -9.1 15.5 81 -11.9 10.6
09:40 1007 29.74 836 24.69 -9.3 15.2 85 -11.5 11.3
09:45 1007 29.74 836 24.69 -9.8 14.4 88 -11.4 11.5
09:50 1007 29.74 836 24.69 -9.8 14.4 90 -11.2 11.9
09:55 1007 29.74 836 24.69 -9.7 14.6 90 -11 12.2
10:00 1007 29.74 836 24.69 -9.6 14.6 90 -10.9 12.3
10:05 1007 29.74 836 24.69 -9.5 14.8 90 -10.8 12.5
10:10 1007 29.74 836 24.69 -9.5 14.9 90 -10.9 12.4
10:15 1007 29.74 836 24.69 -9.8 14.4 89 -11.3 11.6
10:20 1007 29.74 836 24.69 -9.9 14.1 90 -11.3 11.6
10:25 1007 29.74 837 24.72 -9.9 14.2 90 -11.3 11.7
10:30 1007 29.74 837 24.72 -9.8 14.3 90 -11.1 12
10:35 1007 29.74 837 24.72 -9.8 14.4 89 -11.3 11.7
10:40 1007 29.74 837 24.72 -10.1 13.8 90 -11.5 11.4
10:45 1007 29.74 837 24.72 -10.1 13.9 90 -11.3 11.6
10:50 1007 29.74 837 24.72 -9.8 14.4 90 -11.1 12.1
10:55 1007 29.74 837 24.72 -9.4 15.1 90 -10.7 12.8
11:00 1007 29.74 836 24.69 -9.3 15.3 91 -10.5 13.2
11:05 1007 29.74 837 24.72 -9 15.8 91 -10.2 13.6
11:10 1007 29.74 837 24.72 -8.7 16.4 91 -9.9 14.3
11:15 1007 29.74 837 24.72 -8.4 16.8 90 -9.7 14.5
11:20 1007 29.74 837 24.72 -8.3 17 91 -9.6 14.7
11:25 1007 29.74 837 24.72 -8.2 17.3 91 -9.4 15.1
11:30 1007 29.74 837 24.72 -7.7 18.2 91 -8.9 16.1
11:35 1007 29.74 837 24.72 -7.4 18.7 91 -8.6 16.5
11:40 1008 29.77 837 24.72 -7.4 18.7 89 -8.8 16.1
11:45 1008 29.77 837 24.72 -7.9 17.7 89 -9.4 15.1
11:50 1008 29.77 837 24.72 -8.1 17.4 90 -9.6 14.8
11:55 1008 29.77 837 24.72 -8.3 17.1 90 -9.6 14.6
12:00 1008 29.77 837 24.72 -8.3 17.1 90 -9.6 14.7
12:05 1008 29.77 837 24.72 -8.2 17.2 91 -9.5 14.9
12:10 1008 29.77 837 24.72 -8 17.6 90 -9.4 15.1
12:15 1008 29.77 837 24.72 -8.1 17.5 91 -9.3 15.3
12:20 1007 29.74 837 24.72 -7.7 18.1 91 -9 15.8
12:25 1007 29.74 837 24.72 -7.5 18.5 91 -8.8 16.2
12:30 1007 29.74 837 24.72 -7.4 18.7 90 -8.7 16.3
12:35 1007 29.74 837 24.72 -7.4 18.8 91 -8.6 16.5
12:40 1007 29.74 837 24.72 -7.1 19.2 91 -8.3 17.1
12:45 1007 29.74 836 24.69 -6.7 19.9 91 -8 17.7
12:50 1007 29.74 836 24.69 -6.5 20.3 91 -7.7 18.2
12:55 1007 29.74 836 24.69 -6.1 21.1 91 -7.3 18.9
13:00 1007 29.74 836 24.69 -6 21.2 90 -7.4 18.8
13:05 1007 29.74 836 24.69 -6.1 21 91 -7.4 18.8
13:10 1007 29.74 836 24.69 -6 21.1 91 -7.2 19
13:15 1007 29.74 836 24.69 -5.8 21.5 91 -7 19.4
13:20 1007 29.74 836 24.69 -5.7 21.8 91 -7 19.5
13:25 1007 29.74 836 24.69 -5.8 21.5 90 -7.1 19.2
13:30 1007 29.74 836 24.69 -5.9 21.4 91 -7.2 19.1
13:35 1007 29.74 836 24.69 -6.1 21.1 91 -7.3 18.9
13:40 1007 29.74 836 24.69 -6.1 21 92 -7.2 19
13:45 1007 29.74 836 24.69 -6 21.3 92 -7.1 19.2
13:50 1007 29.74 836 24.69 -5.7 21.7 92 -6.9 19.7
13:55 1007 29.74 836 24.69 -5.5 22 91 -6.8 19.8
14:00 1007 29.74 836 24.69 -5.6 21.8 91 -6.9 19.5
14:05 1007 29.74 836 24.69 -5.7 21.8 91 -7 19.5
14:10 1007 29.74 836 24.69 -5.6 21.9 91 -6.8 19.7
14:15 1007 29.74 836 24.69 -5.6 22 91 -6.8 19.8
14:20 1007 29.74 836 24.69 -5.6 21.9 90 -6.9 19.5
14:25 1007 29.74 836 24.69 -6 21.3 91 -7.2 19
14:30 1007 29.74 836 24.69 -6 21.3 91 -7.2 19.1
14:35 1007 29.74 836 24.69 -5.8 21.5 92 -7 19.4
14:40 1007 29.74 836 24.69 -5.9 21.4 91 -7.2 19.1
14:45 1007 29.74 836 24.69 -5.9 21.5 91 -7.1 19.3
14:50 1007 29.74 836 24.69 -5.7 21.8 90 -7 19.4
14:55 1007 29.74 836 24.69 -5.7 21.7 90 -7.1 19.1
15:00 1007 29.74 836 24.69 -5.8 21.6 91 -7 19.3
15:05 1007 29.74 836 24.69 -5.6 22 91 -6.9 19.6
15:10 1007 29.74 836 24.69 -5.6 21.9 90 -7 19.3
15:15 1007 29.74 836 24.69 -5.8 21.6 90 -7.1 19.2
15:20 1007 29.74 836 24.69 -5.7 21.8 90 -7.1 19.3
15:25 1007 29.74 836 24.69 -5.7 21.7 90 -7.1 19.2
15:30 1007 29.74 836 24.69 -5.8 21.5 91 -7 19.4
15:35 1007 29.74 836 24.69 -5.7 21.8 90 -7 19.4
15:40 1007 29.74 836 24.69 -5.7 21.7 90 -7.2 19.1
15:45 1007 29.74 836 24.69 -5.8 21.6 91 -7 19.4
15:50 1007 29.74 836 24.69 -5.6 21.9 90 -7 19.4
15:55 1007 29.74 836 24.69 -5.8 21.6 90 -7.1 19.2
16:00 1007 29.74 836 24.69 -5.7 21.7 91 -7 19.4
16:05 1007 29.74 836 24.69 -5.7 21.7 90 -7 19.3
16:10 1007 29.74 836 24.69 -5.6 22 90 -6.9 19.5
16:15 1007 29.74 836 24.69 -5.5 22.2 89 -6.9 19.5
16:20 1007 29.74 836 24.69 -5.5 22.2 90 -6.8 19.7
16:25 1007 29.74 836 24.69 -5.3 22.5 90 -6.7 20
16:30 1007 29.74 836 24.69 -5.2 22.6 89 -6.7 19.9
16:35 1007 29.74 836 24.69 -5.3 22.5 88 -6.9 19.5
16:40 1007 29.74 836 24.69 -5.5 22.1 88 -7.2 19
16:45 1007 29.74 836 24.69 -5.7 21.7 88 -7.4 18.6
16:50 1007 29.74 836 24.69 -5.8 21.5 88 -7.5 18.5
16:55 1007 29.74 836 24.69 -5.7 21.7 87 -7.5 18.4
17:00 1007 29.74 836 24.69 -5.8 21.6 88 -7.4 18.6
17:05 1007 29.74 836 24.69 -5.7 21.8 87 -7.4 18.6
17:10 1007 29.74 836 24.69 -5.7 21.8 88 -7.4 18.7
17:15 1007 29.74 836 24.69 -5.6 21.9 89 -7.2 19
17:20 1007 29.74 836 24.69 -5.4 22.2 88 -7.1 19.2
17:25 1007 29.74 836 24.69 -5.4 22.2 88 -7.2 19.1
17:30 1007 29.74 836 24.69 -5.5 22 87 -7.4 18.7
17:35 1007 29.74 836 24.69 -5.7 21.7 87 -7.5 18.6
17:40 1007 29.74 836 24.69 -5.7 21.7 88 -7.5 18.6
17:45 1007 29.74 836 24.69 -5.5 22 87 -7.3 18.8
17:50 1007 29.74 836 24.69 -5.6 22 87 -7.4 18.6
17:55 1007 29.74 836 24.69 -5.6 21.9 87 -7.4 18.7
18:00 1007 29.74 836 24.69 -5.6 21.9 88 -7.4 18.8
18:05 1007 29.74 836 24.69 -5.6 21.9 88 -7.3 18.8
18:10 1007 29.74 836 24.69 -5.6 21.9 88 -7.2 19
18:15 1007 29.74 837 24.72 -5.5 22.1 88 -7.2 19.1
18:20 1007 29.74 837 24.72 -5.5 22 88 -7.3 18.9
18:25 1007 29.74 837 24.72 -5.5 22.1 87 -7.3 18.9
18:30 1008 29.77 837 24.72 -5.5 22.1 87 -7.3 18.9
18:35 1008 29.77 837 24.72 -5.6 21.9 88 -7.3 18.8
18:40 1008 29.77 837 24.72 -5.5 22 87 -7.3 18.8
18:45 1008 29.77 837 24.72 -5.6 21.9 87 -7.4 18.7
18:50 1008 29.77 837 24.72 -5.6 22 87 -7.3 18.8
18:55 1008 29.77 837 24.72 -5.5 22.1 87 -7.3 18.8
19:00 1008 29.77 837 24.72 -5.5 22.1 87 -7.3 18.8
19:05 1008 29.77 837 24.72 -5.6 22 87 -7.4 18.7
19:10 1008 29.77 837 24.72 -5.6 21.9 87 -7.4 18.6
19:15 1008 29.77 837 24.72 -5.6 21.8 88 -7.3 18.8
19:20 1008 29.77 837 24.72 -5.6 22 88 -7.3 18.8
19:25 1008 29.77 837 24.72 -5.6 22 88 -7.3 18.8
19:30 1008 29.77 837 24.72 -5.5 22 88 -7.2 19
19:35 1008 29.77 837 24.72 -5.6 21.9 88 -7.2 19
19:40 1008 29.77 837 24.72 -5.7 21.8 89 -7.3 18.9
19:45 1008 29.77 837 24.72 -5.7 21.7 88 -7.3 18.8
19:50 1008 29.77 837 24.72 -5.8 21.5 89 -7.4 18.8
19:55 1008 29.77 837 24.72 -5.9 21.5 89 -7.4 18.7
20:00 1008 29.77 837 24.72 -5.9 21.5 89 -7.4 18.7
20:05 1008 29.77 837 24.72 -5.9 21.4 89 -7.3 18.8
20:10 1008 29.77 837 24.72 -5.8 21.6 89 -7.4 18.7
20:15 1008 29.77 837 24.72 -5.9 21.3 89 -7.4 18.7
20:20 1008 29.77 837 24.72 -5.9 21.4 90 -7.4 18.8
20:25 1008 29.77 837 24.72 -5.8 21.6 89 -7.3 18.8
20:30 1008 29.77 837 24.72 -5.8 21.7 88 -7.4 18.7
20:35 1008 29.77 837 24.72 -5.8 21.6 88 -7.4 18.6
20:40 1008 29.77 837 24.72 -5.7 21.7 88 -7.4 18.7
20:45 1008 29.77 837 24.72 -5.7 21.7 88 -7.4 18.7
20:50 1008 29.77 837 24.72 -5.8 21.5 89 -7.4 18.7
20:55 1008 29.77 837 24.72 -5.9 21.5 89 -7.4 18.7
21:00 1008 29.77 837 24.72 -5.9 21.4 89 -7.4 18.7
21:05 1008 29.77 837 24.72 -5.9 21.3 89 -7.4 18.7
21:10 1008 29.77 837 24.72 -6 21.2 89 -7.5 18.6
21:15 1008 29.77 837 24.72 -6 21.3 90 -7.4 18.6
21:20 1008 29.77 837 24.72 -6 21.2 89 -7.5 18.5
21:25 1008 29.77 837 24.72 -6.1 21.1 90 -7.5 18.5
21:30 1008 29.77 837 24.72 -6.1 21.1 90 -7.5 18.5
21:35 1008 29.77 837 24.72 -6.1 21 90 -7.6 18.4
21:40 1008 29.77 837 24.72 -6.2 20.9 90 -7.5 18.5
21:45 1008 29.77 837 24.72 -6.1 21 90 -7.5 18.5
21:50 1008 29.77 837 24.72 -6.1 21 90 -7.5 18.5
21:55 1008 29.77 837 24.72 -6.1 21 90 -7.5 18.5
22:00 1008 29.77 837 24.72 -6.1 21 90 -7.5 18.5
22:05 1008 29.77 837 24.72 -6 21.1 90 -7.4 18.6
22:10 1008 29.77 837 24.72 -6 21.2 90 -7.4 18.6
22:15 1008 29.77 837 24.72 -6 21.2 90 -7.4 18.6
22:20 1008 29.77 837 24.72 -6 21.2 90 -7.4 18.7
22:25 1008 29.77 837 24.72 -6 21.2 90 -7.4 18.6
22:30 1008 29.77 837 24.72 -5.9 21.3 89 -7.4 18.7
22:35 1008 29.77 837 24.72 -6 21.3 89 -7.4 18.6
22:40 1008 29.77 837 24.72 -5.9 21.3 89 -7.5 18.5
22:45 1008 29.77 837 24.72 -5.9 21.3 87 -7.8 17.9
22:50 1008 29.77 837 24.72 -5.9 21.3 85 -8 17.6
22:55 1008 29.77 837 24.72 -5.9 21.5 85 -7.9 17.7
23:00 1008 29.77 837 24.72 -5.8 21.5 85 -8 17.7
23:05 1008 29.77 837 24.72 -5.9 21.5 85 -8 17.6
23:10 1008 29.77 837 24.72 -5.9 21.4 84 -8.1 17.4
23:15 1008 29.77 837 24.72 -5.9 21.4 85 -8 17.6
23:20 1008 29.77 837 24.72 -6.1 21.1 86 -8 17.6
23:25 1008 29.77 837 24.72 -6.1 21 87 -8 17.7
23:30 1008 29.77 837 24.72 -6.1 21 87 -7.9 17.7
23:35 1008 29.77 837 24.72 -6 21.1 86 -8 17.7
23:40 1008 29.77 837 24.72 -6.1 21 87 -8 17.6
23:45 1008 29.77 837 24.72 -6.2 20.8 87 -8.1 17.5
23:50 1008 29.77 837 24.72 -6.2 20.8 86 -8.1 17.4
23:55 1008 29.77 837 24.72 -6.1 21.1 82 -8.7 16.4
24:00 1008 29.77 838 24.75 -5.8 21.5 81 -8.7 16.4